Greenville Downtown, SC

2:21 PM EDT on March 23, 2017 (GMT -0400)
Greenville Downtown

Weather History for KGMU - December, 2011

Change the Weather History Date:

Thursday, December 1, 2011

  Actual Average Record
Temperature  
Mean Temperature 42 °F -  
Max Temperature 55 °F 56 °F 73 °F (1998)
Min Temperature 30 °F 37 °F 27 °F (1999)
Degree Days  
Heating Degree Days 22    
Moisture  
Dew Point 24 °F    
Average Humidity 50    
Maximum Humidity 82    
Minimum Humidity 24    
Precipitation  
Precipitation 0.00 in - - ()
Sea Level Pressure  
Sea Level Pressure 30.31 in    
Wind  
Wind Speed 3 mph (North)    
Max Wind Speed 7 mph    
Max Gust Speed -    
Visibility 10 miles    
Events      
Averages and records for this station are not official NWS values.
T = Trace of Precipitation, MM = Missing Value Source: NWS Daily Summary

Daily Weather History Graph

Daily Weather History Graph

Search for Another Location

Airport or City:

Trip Planner

Search our weather history database for the weather conditions in past years. The results will help you decide how hot, cold, wet, or windy it might be!

Date:

Astronomy

Dec. 01, 2011 Rise Set
Actual Time 7:18 AM EST 5:18 PM EST
Civil Twilight 6:50 AM EST 5:45 PM EST
Nautical Twilight 6:19 AM EST 6:17 PM EST
Astronomical Twilight 5:49 AM EST 6:47 PM EST
Moon 12:12 PM EST (12/1) No Moon Set
Length of Visible Light 10h 55m
Length of Day
9h 59m
Waxing Crescent, 43% of the Moon is Illuminated
Dec 1
Waxing Crescent
Dec 2
First Quarter
Dec 10
Full
Dec 17
Last Quarter
Dec 24
New

Hourly Weather History & Observations

Time (EST) Temp. Windchill Dew Point Humidity Pressure Visibility Wind Dir Wind Speed Gust Speed Precip Events Conditions
12:53 AM 39.0 °F 35.7 °F 24.1 °F 55% 30.16 in 10.0 mi NNW 4.6 mph - N/A   Clear
1:53 AM 39.0 °F 35.7 °F 23.0 °F 53% 30.17 in 10.0 mi North 4.6 mph - N/A   Clear
3:53 AM 33.1 °F - 25.0 °F 72% 30.19 in 10.0 mi Calm Calm - N/A   Clear
4:53 AM 32.0 °F - 25.0 °F 75% 30.20 in 10.0 mi Calm Calm - N/A   Clear
5:53 AM 30.0 °F - 25.0 °F 82% 30.23 in 10.0 mi Calm Calm - N/A   Clear
6:53 AM 30.0 °F 26.5 °F 25.0 °F 82% 30.27 in 10.0 mi North 3.5 mph - N/A   Clear
8:53 AM 37.9 °F 35.5 °F 28.9 °F 70% 30.35 in 10.0 mi West 3.5 mph - N/A   Clear
9:53 AM 46.9 °F - 24.1 °F 41% 30.36 in 10.0 mi ENE 5.8 mph - N/A   Clear
10:53 AM 48.9 °F - 21.9 °F 35% 30.37 in 10.0 mi ENE 6.9 mph - N/A   Clear
11:53 AM 52.0 °F - 21.0 °F 30% 30.35 in 10.0 mi Variable 3.5 mph - N/A   Clear
12:53 PM 53.1 °F - 19.0 °F 26% 30.33 in 10.0 mi Calm Calm - N/A   Clear
1:53 PM 55.9 °F - 19.0 °F 24% 30.31 in 10.0 mi Calm Calm - N/A   Clear
4:53 PM 55.0 °F - 21.0 °F 27% 30.33 in 10.0 mi South 3.5 mph - N/A   Clear
5:53 PM 50.0 °F - 23.0 °F 35% 30.35 in 10.0 mi Calm Calm - N/A   Clear
6:53 PM 48.9 °F - 26.1 °F 41% 30.36 in 10.0 mi Calm Calm - N/A   Clear
7:53 PM 46.9 °F - 25.0 °F 42% 30.37 in 10.0 mi Calm Calm - N/A   Clear
8:53 PM 45.0 °F - 27.0 °F 49% 30.37 in 10.0 mi Calm Calm - N/A   Clear
9:53 PM 42.1 °F - 27.0 °F 55% 30.37 in 10.0 mi Calm Calm - N/A   Clear
10:53 PM 39.9 °F - 28.0 °F 63% 30.38 in 10.0 mi Calm Calm - N/A   Clear